Weather History for KDTS - June, 2013

Change the Weather History Date:

Friday, June 7, 2013

  Actual Average Record
Temperature  
Mean Temperature 78 °F -  
Max Temperature 84 °F 82 °F 89 °F (2008)
Min Temperature 73 °F 71 °F 64 °F (1997)
Cooling Degree Days 14    
Growing Degree Days 28 (Base 50)    
Moisture  
Dew Point 70 °F    
Average Humidity 73    
Maximum Humidity 85    
Minimum Humidity 65    
Precipitation  
Precipitation 0.00 in - - ()
Sea Level Pressure  
Sea Level Pressure 29.82 in    
Wind  
Wind Speed 5 mph (WSW)    
Max Wind Speed 13 mph    
Max Gust Speed 18 mph    
Visibility 10 miles    
Events      
Averages and records for this station are not official NWS values.
T = Trace of Precipitation, MM = Missing Value Source: NWS Daily Summary

Daily Weather History Graph

Daily Weather History Graph

Search for Another Location

Airport or City:

Trip Planner

Search our weather history database for the weather conditions in past years. The results will help you decide how hot, cold, wet, or windy it might be!

Date:

Astronomy

Jun. 07, 2013 Rise Set
Actual Time 5:43 AM CDT 7:46 PM CDT
Civil Twilight 5:15 AM CDT 8:13 PM CDT
Nautical Twilight 4:42 AM CDT 8:47 PM CDT
Astronomical Twilight 4:07 AM CDT 9:22 PM CDT
Moon 5:00 AM CDT 7:03 PM CDT
Length of Visible Light 14h 57m
Length of Day
14h 03m
Waning Crescent, 1% of the Moon is Illuminated
Jun 7
Waning Crescent
Jun 8
New
Jun 16
First Quarter
Jun 23
Full
Jun 29
Last Quarter

Hourly Weather History & Observations

Time (CDT) Temp. Heat Index Dew Point Humidity Pressure Visibility Wind Dir Wind Speed Gust Speed Precip Events Conditions
12:53 AM 75.0 °F - 70.0 °F 84% 29.75 in 10.0 mi Calm Calm - N/A   Clear
1:53 AM 75.0 °F - 70.0 °F 84% 29.75 in 10.0 mi Calm Calm - N/A   Mostly Cloudy
2:23 AM 77.0 °F - 69.8 °F 78% 29.75 in 10.0 mi NW 3.5 mph - N/A   Scattered Clouds
2:53 AM 75.9 °F - 69.1 °F 79% 29.75 in 10.0 mi NNW 4.6 mph - N/A   Clear
3:53 AM 75.0 °F - 69.1 °F 82% 29.76 in 10.0 mi NW 3.5 mph - N/A   Clear
4:53 AM 73.9 °F - 69.1 °F 85% 29.76 in 10.0 mi Calm Calm - N/A   Clear
5:53 AM 73.0 °F - 68.0 °F 84% 29.79 in 10.0 mi NW 5.8 mph - N/A   Clear
6:53 AM 73.9 °F - 68.0 °F 82% 29.81 in 10.0 mi NW 9.2 mph - N/A   Clear
7:53 AM 77.0 °F - 68.0 °F 74% 29.83 in 10.0 mi NW 8.1 mph - N/A   Clear
8:53 AM 80.1 °F 82.7 °F 68.0 °F 67% 29.84 in 10.0 mi Variable 3.5 mph - N/A   Clear
9:53 AM 81.0 °F 83.8 °F 68.0 °F 65% 29.84 in 10.0 mi WSW 6.9 mph - N/A   Clear
10:53 AM 82.9 °F 87.5 °F 71.1 °F 67% 29.86 in 10.0 mi SW 8.1 mph - N/A   Scattered Clouds
11:53 AM 82.0 °F 86.3 °F 71.1 °F 69% 29.86 in 10.0 mi SW 9.2 mph - N/A   Partly Cloudy
12:53 PM 82.9 °F 88.0 °F 72.0 °F 69% 29.86 in 10.0 mi SW 8.1 mph - N/A   Mostly Cloudy
1:51 PM 82.4 °F 87.2 °F 71.6 °F 70% 29.84 in 10.0 mi WSW 11.5 mph 17.3 mph N/A   Mostly Cloudy
1:53 PM 82.9 °F 88.0 °F 72.0 °F 69% 29.84 in 10.0 mi WSW 11.5 mph 17.3 mph N/A   Mostly Cloudy
2:02 PM 84.2 °F 89.6 °F 71.6 °F 66% 29.84 in 10.0 mi SW 9.2 mph - N/A   Scattered Clouds
2:53 PM 84.0 °F 89.6 °F 72.0 °F 67% 29.83 in 10.0 mi WSW 10.4 mph 18.4 mph N/A   Scattered Clouds
3:53 PM 84.0 °F 89.6 °F 72.0 °F 67% 29.82 in 10.0 mi WSW 11.5 mph 17.3 mph N/A   Clear
4:53 PM 84.0 °F 89.6 °F 72.0 °F 67% 29.82 in 10.0 mi SW 9.2 mph 18.4 mph N/A   Mostly Cloudy
5:28 PM 82.4 °F 86.3 °F 69.8 °F 66% 29.82 in 10.0 mi WSW 12.7 mph 18.4 mph N/A   Scattered Clouds
5:53 PM 82.9 °F 87.0 °F 70.0 °F 65% 29.81 in 10.0 mi WSW 12.7 mph 18.4 mph N/A   Partly Cloudy
6:53 PM 82.0 °F 86.3 °F 71.1 °F 69% 29.83 in 10.0 mi WSW 10.4 mph 18.4 mph N/A   Scattered Clouds
7:53 PM 82.0 °F 85.9 °F 70.0 °F 67% 29.85 in 10.0 mi Variable 5.8 mph 16.1 mph N/A   Partly Cloudy
8:53 PM 81.0 °F 84.9 °F 71.1 °F 72% 29.86 in 10.0 mi WSW 8.1 mph - N/A   Clear
9:53 PM 81.0 °F 84.9 °F 71.1 °F 72% 29.89 in 10.0 mi Calm Calm - N/A   Clear
10:53 PM 81.0 °F 84.9 °F 71.1 °F 72% 29.91 in 10.0 mi Variable 3.5 mph - N/A   Clear
11:53 PM 81.0 °F 84.9 °F 71.1 °F 72% 29.91 in 10.0 mi WSW 4.6 mph - N/A   Mostly Cloudy